Regional Weather Roundup
Issued by NWS State College, PA

Home | Current Version | Previous Version | Text Only | Print | Product List | Glossary On
Versions: 1 2 3 4 5 6 7 8 9 10 11 12 13 14 15 16 17 18 19 20 21 22 23 24 25 26 27 28 29 30 31 32 33 34 35 36 37 38 39 40 41 42 43 44 45 46 47 48 49 50
000
ASUS41 KCTP 301210
RWRCTP

REGIONAL WEATHER ROUNDUP
NATIONAL WEATHER SERVICE STATE COLLEGE PA
800 AM EDT MON MAY 30 2016

Note: "fair" indicates few or no clouds below 12,000 feet with no
significant weather and/or obstructions to visibility.

* = STATION THAT DOES NOT REPORT PRECIPITATION /E.G. RAIN...SNOW...ETC/
    THUNDER OR FOG.

PAZ002>004-007>009-013>016-020>023-029>032-301300-
WESTERN PENNSYLVANIA

CITY           SKY/WX    TMP DP  RH WIND       PRES   REMARKS
ERIE           SUNNY     71  61  70 SW6       29.99S
MEADVILLE      SUNNY     64  62  93 W6        30.03R
FRANKLIN*      PTSUNNY   64  61  88 SW5       30.05S
NEW CASTLE     FAIR      65  63  93 CALM      30.03S FOG
BEAVER COUNTY  NOT AVBL
BUTLER*        MOSUNNY  N/A N/A N/A SW3       30.05S
PITTSBURGH INT PTSUNNY   67  61  81 SW3       30.03R
PITTSBURGH     MOSUNNY   66  62  87 S7        30.03R
INDIANA*       SUNNY     64  63  94 CALM      30.07F
LATROBE        MOSUNNY   63  63 100 CALM      30.05S
WASHINGTON CO* SUNNY     64  63  94 CALM      30.05R
$$

PAZ004>006-010>012-017>019-024>028-033>037-041-042-045-046-049>053-301300-
CENTRAL PENNSYLVANIA

CITY           SKY/WX    TMP DP  RH WIND       PRES   REMARKS
BRADFORD       SUNNY     63  58  83 SW3       30.04F
DUBOIS         MOSUNNY   63  60  90 SW5       30.03F
CLEARFIELD     FOG       60  58  92 CALM      30.05S VSB<1/4
JOHNSTOWN      SUNNY     62  55  77 SW6       30.07S
ALTOONA        CLOUDY    64  60  87 CALM      30.05S FOG
STATE COLLEGE  SUNNY     66  61  82 CALM      30.03S
WILLIAMSPORT   MOSUNNY   68  61  78 SE5       30.01S
SELINSGROVE    MOSUNNY   66  62  87 CALM      30.04R
FT INDIANTOWN  CLOUDY    66  66 100 CALM      30.04R
CAPITAL CITY   PTSUNNY   68  62  81 CALM      30.03S
HARRISBURG     PTSUNNY   68  63  84 CALM      30.03R
YORK           PTSUNNY   67  63  87 CALM      30.04R
$$

PAZ038>040-043-044-047-048-054-055-060>062-067>071-301300-
EASTERN PENNSYLVANIA

CITY           SKY/WX    TMP DP  RH WIND       PRES   REMARKS
SCRANTON       CLOUDY    65  62  90 CALM      30.04R
MOUNT POCONO   NOT AVBL
ALLENTOWN      CLOUDY    69  64  84 CALM      30.02S
QUAKERTOWN*    CLOUDY    66  66 100 CALM      30.03S
READING        CLOUDY    68  65  90 NW6       30.02S
LANCASTER      CLOUDY    66  64  93 W5        30.03S
COATESVILLE    CLOUDY    68  64  88 NW5       30.05S
POTTSTOWN      CLOUDY    68  67  96 CALM      30.04R
BLUE BELL      CLOUDY    68  66  94 CALM      30.01S
DOYLESTOWN     CLOUDY    68  67  96 W3        30.01S
WILLOW GROVE   NOT AVBL
NORTH PHILA    CLOUDY    72  68  87 N3        30.02S
PHILADELPHIA   CLOUDY    71  68  90 NW6       30.02R
$$



USA.gov is the U.S. government's official web portal to all federal, state and local government web resources and services.